Weather History for KLNR - April, 2012

Change the Weather History Date:

Friday, April 6, 2012

  Actual Average Record
Temperature  
Mean Temperature 42 °F -  
Max Temperature 60 °F 51 °F 77 °F (2005)
Min Temperature 25 °F 31 °F 17 °F (2002)
Degree Days  
Heating Degree Days 22    
Moisture  
Dew Point 26 °F    
Average Humidity 56    
Maximum Humidity 88    
Minimum Humidity 27    
Precipitation  
Precipitation 0.00 in - - ()
Sea Level Pressure  
Sea Level Pressure 30.25 in    
Wind  
Wind Speed 3 mph (East)    
Max Wind Speed 9 mph    
Max Gust Speed 17 mph    
Visibility 10 miles    
Events      
Averages and records for this station are not official NWS values.
T = Trace of Precipitation, MM = Missing Value Source: NWS Daily Summary

Daily Weather History Graph

Daily Weather History Graph

Search for Another Location

Airport or City:

Trip Planner

Search our weather history database for the weather conditions in past years. The results will help you decide how hot, cold, wet, or windy it might be!

Date:

Astronomy

Apr. 06, 2012 Rise Set
Actual Time 6:33 AM CDT 7:33 PM CDT
Civil Twilight 6:03 AM CDT 8:02 PM CDT
Nautical Twilight 5:29 AM CDT 8:37 PM CDT
Astronomical Twilight 4:53 AM CDT 9:13 PM CDT
Moon 7:55 PM CDT (4/6) 6:04 AM CDT (4/6)
Length of Visible Light 13h 58m
Length of Day
13h 00m
Full, 100% of the Moon is Illuminated
Apr 6
Full
Apr 6
Full
Apr 13
Last Quarter
Apr 21
New
Apr 29
First Quarter

Hourly Weather History & Observations

Time (CDT) Temp. Windchill Dew Point Humidity Pressure Visibility Wind Dir Wind Speed Gust Speed Precip Events Conditions
12:56 AM 35.1 °F - 25.0 °F 67% 30.23 in 10.0 mi Calm Calm - N/A   Clear
1:56 AM 32.0 °F - 25.0 °F 75% 30.25 in 10.0 mi Calm Calm - N/A   Clear
2:56 AM 30.0 °F 26.5 °F 23.0 °F 75% 30.25 in 10.0 mi East 3.5 mph - N/A   Clear
3:56 AM 28.0 °F - 24.1 °F 85% 30.26 in 10.0 mi Calm Calm - N/A   Clear
4:56 AM 27.0 °F - 21.9 °F 81% 30.27 in 10.0 mi Calm Calm - N/A   Clear
5:56 AM 25.0 °F - 21.9 °F 88% 30.28 in 10.0 mi Calm Calm - N/A   Clear
6:56 AM 25.0 °F - 21.9 °F 88% 30.30 in 10.0 mi Calm Calm - N/A   Clear
7:56 AM 32.0 °F - 26.1 °F 79% 30.33 in 10.0 mi Calm Calm - N/A   Clear
8:56 AM 39.0 °F 33.4 °F 28.0 °F 65% 30.33 in 10.0 mi East 8.1 mph - N/A   Clear
9:56 AM 43.0 °F 41.3 °F 28.0 °F 56% 30.33 in 10.0 mi Variable 3.5 mph - N/A   Clear
10:56 AM 46.9 °F - 28.9 °F 50% 30.33 in 10.0 mi Variable 4.6 mph - N/A   Clear
11:56 AM 51.1 °F - 30.0 °F 44% 30.32 in 10.0 mi Calm Calm - N/A   Clear
12:56 PM 54.0 °F - 28.0 °F 37% 30.30 in 10.0 mi NE 9.2 mph - N/A   Clear
1:56 PM 55.9 °F - 27.0 °F 33% 30.27 in 10.0 mi Variable 3.5 mph 16.1 mph N/A   Clear
2:56 PM 57.9 °F - 27.0 °F 31% 30.25 in 10.0 mi East 8.1 mph - N/A   Clear
3:56 PM 59.0 °F - 27.0 °F 29% 30.22 in 10.0 mi Variable 4.6 mph 17.3 mph N/A   Clear
4:56 PM 60.1 °F - 26.1 °F 27% 30.20 in 10.0 mi East 9.2 mph - N/A   Clear
5:56 PM 59.0 °F - 25.0 °F 27% 30.20 in 10.0 mi SE 8.1 mph - N/A   Clear
6:56 PM 57.0 °F - 26.1 °F 30% 30.19 in 10.0 mi ESE 5.8 mph - N/A   Clear
7:56 PM 52.0 °F - 27.0 °F 38% 30.19 in 10.0 mi SE 3.5 mph - N/A   Clear
8:56 PM 46.9 °F - 28.9 °F 50% 30.19 in 10.0 mi ESE 5.8 mph - N/A   Clear
9:56 PM 43.0 °F 38.8 °F 30.0 °F 60% 30.19 in 10.0 mi East 6.9 mph - N/A   Clear
10:56 PM 41.0 °F 39.0 °F 28.9 °F 62% 30.20 in 10.0 mi East 3.5 mph - N/A   Clear
11:56 PM 39.9 °F 34.5 °F 28.0 °F 63% 30.19 in 10.0 mi East 8.1 mph - N/A   Clear